| time (UTC) | temp C | wind direction | speed KPH | gust KPH | rain 1hr cm | rain 24hr cm | rain mn cm | humidity % | barometer mb |
| 20260904171504 | 30 | 128 | 3.2 | 8.0 | 0.00 | 1.04 | 0.08 | 79 | 1015.3 |
| 20260904170001 | 30 | 128 | 1.6 | 4.8 | 0.00 | 1.12 | 0.08 | 80 | 1015.3 |
| 20260904164503 | 29 | 128 | 1.6 | 4.8 | 0.00 | 1.50 | 0.08 | 81 | 1015.3 |
| 20260904163005 | 29 | 128 | 3.2 | 4.8 | 0.00 | 1.75 | 0.08 | 82 | 1015.3 |
| 20260904161459 | 29 | 128 | 0.0 | 4.8 | 0.00 | 1.75 | 0.08 | 83 | 1015.2 |
| 20260904160009 | 29 | 128 | 1.6 | 11.3 | 0.00 | 1.75 | 0.08 | 83 | 1015.1 |
| 20260904154456 | 29 | 128 | 4.8 | 14.5 | 0.00 | 1.75 | 0.08 | 84 | 1015.2 |
| 20260904152956 | 28 | 69 | 4.8 | 11.3 | 0.00 | 1.75 | 0.08 | 84 | 1014.9 |
| 20260904152148 | 29 | 31 | 3.2 | 11.3 | 0.00 | 1.75 | 0.08 | 86 | 1014.9 |
| 20260904150701 | 28 | 131 | 3.2 | 11.3 | 0.00 | 1.75 | 0.08 | 88 | 1014.9 |
| 20260904145153 | 27 | 131 | 6.4 | 11.3 | 0.00 | 1.75 | 0.08 | 91 | 1014.9 |
| 20260904143651 | 27 | 128 | 1.6 | 11.3 | 0.00 | 1.75 | 0.08 | 92 | 1014.9 |
| 20260904141454 | 26 | 128 | 4.8 | 8.0 | 0.00 | 1.75 | 0.08 | 92 | 1014.7 |
| 20260904135954 | 26 | 128 | 3.2 | 11.3 | 0.00 | 1.75 | 0.08 | 92 | 1014.6 |
| 20260904134454 | 26 | 128 | 6.4 | 14.5 | 0.00 | 1.75 | 0.08 | 92 | 1014.5 |
| 20260904132953 | 25 | 97 | 1.6 | 4.8 | 0.00 | 1.75 | 0.08 | 92 | 1014.4 |
| 20260904132202 | 25 | 97 | 0.0 | 0.0 | 0.00 | 1.75 | 0.08 | 92 | 1014.2 |
| 20260904130708 | 25 | 97 | 0.0 | 0.0 | 0.00 | 1.75 | 0.08 | 92 | 1014.3 |
| 20260904124452 | 25 | 97 | 0.0 | 4.8 | 0.00 | 1.75 | 0.08 | 92 | 1014.1 |
| 20260904122952 | 25 | 97 | 0.0 | 3.2 | 0.00 | 1.75 | 0.08 | 92 | 1013.9 |
| 20260904121452 | 25 | 97 | 0.0 | 3.2 | 0.00 | 1.75 | 0.08 | 92 | 1013.7 |
| 20260904115951 | 25 | 97 | 0.0 | 3.2 | 0.00 | 1.75 | 0.08 | 92 | 1013.5 |
| 20260904114451 | 25 | 97 | 0.0 | 3.2 | 0.00 | 1.75 | 0.08 | 92 | 1013.4 |
| 20260904113656 | 25 | 97 | 0.0 | 3.2 | 0.00 | 1.75 | 0.08 | 92 | 1013.5 |
| 20260904112147 | 25 | 97 | 0.0 | 3.2 | 0.00 | 1.75 | 0.08 | 92 | 1013.5 |
| 20260904110645 | 25 | 97 | 0.0 | 4.8 | 0.00 | 1.75 | 0.08 | 92 | 1013.4 |
| 20260904105153 | 25 | 97 | 0.0 | 3.2 | 0.00 | 1.75 | 0.08 | 92 | 1013.2 |
| 20260904102949 | 25 | 97 | 0.0 | 3.2 | 0.00 | 1.75 | 0.08 | 92 | 1013.2 |
| 20260904101449 | 25 | 97 | 0.0 | 0.0 | 0.00 | 1.75 | 0.08 | 92 | 1013.0 |
| 20260904095949 | 25 | 97 | 0.0 | 0.0 | 0.00 | 1.75 | 0.08 | 92 | 1013.0 |
| 20260904094448 | 25 | 97 | 0.0 | 0.0 | 0.00 | 1.75 | 0.08 | 92 | 1012.9 |
| 20260904092949 | 25 | 97 | 0.0 | 3.2 | 0.00 | 1.75 | 0.08 | 92 | 1012.8 |
| 20260904091448 | 25 | 97 | 1.6 | 3.2 | 0.03 | 1.75 | 0.08 | 92 | 1012.8 |
| 20260904090654 | 25 | 97 | 0.0 | 3.2 | 0.03 | 1.73 | 0.08 | 91 | 1012.8 |
| 20260904084447 | 25 | 97 | 0.0 | 3.2 | 0.05 | 1.73 | 0.08 | 91 | 1013.0 |
| 20260904082947 | 26 | 97 | 0.0 | 3.2 | 0.08 | 1.73 | 0.08 | 91 | 1013.0 |
| 20260904081446 | 26 | 97 | 0.0 | 0.0 | 0.05 | 1.73 | 0.05 | 91 | 1013.0 |
| 20260904075947 | 26 | 97 | 0.0 | 0.0 | 0.05 | 1.68 | 0.05 | 91 | 1013.0 |
| 20260904075137 | 26 | 97 | 0.0 | 3.2 | 0.03 | 1.68 | 0.03 | 91 | 1013.0 |
| 20260904072945 | 26 | 97 | 0.0 | 3.2 | 0.00 | 1.68 | 0.00 | 91 | 1012.9 |
| 20260904071445 | 26 | 97 | 0.0 | 3.2 | 0.00 | 1.68 | 0.00 | 91 | 1013.0 |
| 20260904065946 | 25 | 97 | 0.0 | 0.0 | 0.00 | 1.68 | 0.00 | 91 | 1013.0 |
| 20260904065142 | 25 | 97 | 0.0 | 0.0 | 0.00 | 1.68 | 0.00 | 91 | 1013.1 |
| 20260904062944 | 25 | 97 | 0.0 | 0.0 | 0.00 | 1.68 | 0.00 | 91 | 1013.2 |
| 20260904061444 | 25 | 97 | 0.0 | 3.2 | 0.00 | 1.68 | 0.00 | 91 | 1013.1 |
| 20260904055944 | 25 | 97 | 0.0 | 3.2 | 0.00 | 1.70 | 0.00 | 91 | 1013.2 |
| 20260904055141 | 25 | 97 | 3.2 | 4.8 | 0.00 | 1.73 | 0.00 | 91 | 1013.3 |
| 20260904052943 | 25 | 97 | 3.2 | 4.8 | 0.00 | 1.75 | 0.00 | 91 | 1013.2 |
| 20260904051444 | 25 | 97 | 1.6 | 3.2 | 0.00 | 1.78 | 0.00 | 91 | 1013.2 |
| 20260904045943 | 25 | 97 | 0.0 | 3.2 | 0.00 | 1.78 | 1.78 | 91 | 1013.2 |
| 20260904044442 | 25 | 97 | 0.0 | 3.2 | 0.00 | 1.78 | 1.78 | 91 | 1013.2 |
| 20260904042942 | 25 | 97 | 0.0 | 3.2 | 0.00 | 1.78 | 1.78 | 91 | 1013.2 |
| 20260904041441 | 25 | 97 | 0.0 | 3.2 | 0.00 | 1.78 | 1.78 | 91 | 1013.2 |
| 20260904035941 | 25 | 97 | 0.0 | 0.0 | 0.00 | 1.78 | 1.78 | 91 | 1013.1 |
| 20260904034439 | 25 | 97 | 0.0 | 3.2 | 0.00 | 1.78 | 1.78 | 91 | 1013.1 |
| 20260904032941 | 25 | 97 | 1.6 | 3.2 | 0.00 | 1.78 | 1.78 | 91 | 1013.1 |
| 20260904031440 | 25 | 97 | 0.0 | 0.0 | 0.00 | 1.78 | 1.78 | 91 | 1013.2 |
| 20260904031348 | 25 | 97 | 0.0 | 0.0 | 0.00 | 1.78 | 1.78 | 91 | 1013.0 |
| 20260904024439 | 25 | 97 | 0.0 | 3.2 | 0.00 | 1.78 | 1.78 | 91 | 1013.1 |
| 20260904022939 | 25 | 97 | 0.0 | 3.2 | 0.00 | 1.78 | 1.78 | 91 | 1012.9 |
| 20260904022133 | 25 | 97 | 0.0 | 3.2 | 0.00 | 1.78 | 1.78 | 91 | 1012.6 |
| 20260904015939 | 25 | 97 | 0.0 | 3.2 | 0.00 | 1.78 | 1.78 | 90 | 1012.6 |
| 20260904014437 | 25 | 97 | 0.0 | 3.2 | 0.00 | 1.78 | 1.78 | 90 | 1012.4 |
| 20260904012937 | 25 | 97 | 0.0 | 3.2 | 0.00 | 1.83 | 1.78 | 90 | 1012.3 |
| 20260904012132 | 25 | 97 | 0.0 | 4.8 | 0.00 | 1.85 | 1.78 | 90 | 1012.2 |
| 20260904005937 | 25 | 97 | 0.0 | 0.0 | 0.00 | 1.85 | 1.78 | 90 | 1012.2 |
| 20260904004437 | 25 | 97 | 0.0 | 0.0 | 0.00 | 1.85 | 1.78 | 90 | 1012.3 |
| 20260904003631 | 25 | 97 | 0.0 | 3.2 | 0.00 | 1.85 | 1.78 | 89 | 1012.4 |
| 20260904001436 | 26 | 97 | 0.0 | 3.2 | 0.00 | 1.85 | 1.78 | 90 | 1012.4 |
| 20260903235934 | 26 | 97 | 0.0 | 0.0 | 0.00 | 1.85 | 1.78 | 89 | 1012.6 |
| 20260903235130 | 25 | 97 | 0.0 | 4.8 | 0.00 | 2.97 | 1.78 | 90 | 1012.5 |
| 20260903232931 | 25 | 97 | 3.2 | 4.8 | 0.00 | 4.11 | 1.78 | 90 | 1012.6 |
| 20260903231432 | 25 | 97 | 0.0 | 4.8 | 0.00 | 4.11 | 1.78 | 90 | 1012.6 |
| 20260903225931 | 25 | 97 | 0.0 | 3.2 | 0.00 | 4.11 | 1.78 | 90 | 1012.5 |
| 20260903225140 | 25 | 97 | 0.0 | 4.8 | 0.00 | 4.29 | 1.78 | 90 | 1012.6 |
| 20260903222931 | 25 | 97 | 0.0 | 8.0 | 0.00 | 4.32 | 1.78 | 90 | 1012.7 |
| 20260903221431 | 25 | 102 | 1.6 | 4.8 | 0.00 | 4.57 | 1.78 | 90 | 1012.8 |
| 20260903220638 | 25 | 102 | 1.6 | 4.8 | 0.00 | 4.88 | 1.78 | 90 | 1013.0 |
| 20260903215128 | 25 | 102 | 1.6 | 4.8 | 0.03 | 4.88 | 1.78 | 91 | 1013.2 |
| 20260903212932 | 25 | 102 | 1.6 | 4.8 | 0.05 | 4.88 | 1.78 | 91 | 1013.4 |
| 20260903211431 | 25 | 102 | 4.8 | 8.0 | 0.10 | 4.88 | 1.78 | 90 | 1013.5 |
| 20260903205931 | 25 | 102 | 3.2 | 3.2 | 0.13 | 4.75 | 1.78 | 90 | 1013.8 |
| 20260903205126 | 25 | 102 | 1.6 | 4.8 | 0.23 | 4.75 | 1.75 | 90 | 1014.0 |
| 20260903202931 | 25 | 102 | 1.6 | 11.3 | 0.30 | 4.75 | 1.73 | 90 | 1014.1 |
| 20260903202121 | 25 | 104 | 1.6 | 8.0 | 0.33 | 4.75 | 1.68 | 90 | 1014.2 |
| 20260903195930 | 25 | 106 | 3.2 | 4.8 | 0.36 | 4.39 | 1.63 | 90 | 1014.0 |
| 20260903194431 | 25 | 106 | 3.2 | 3.2 | 0.28 | 4.39 | 1.52 | 90 | 1014.1 |
| 20260903192930 | 24 | 106 | 1.6 | 4.8 | 0.18 | 4.39 | 1.42 | 90 | 1014.3 |
| 20260903191430 | 24 | 107 | 3.2 | 8.0 | 0.15 | 4.39 | 1.35 | 90 | 1014.1 |
| 20260903185930 | 25 | 107 | 1.6 | 4.8 | 0.18 | 4.22 | 1.27 | 90 | 1014.4 |
| 20260903184429 | 25 | 107 | 3.2 | 8.0 | 0.25 | 4.22 | 1.24 | 89 | 1014.9 |
| 20260903182929 | 25 | 107 | 1.6 | 4.8 | 0.36 | 4.22 | 1.24 | 89 | 1015.0 |
| 20260903181428 | 25 | 107 | 0.0 | 3.2 | 0.38 | 4.22 | 1.19 | 89 | 1014.8 |
| 20260903175928 | 25 | 107 | 3.2 | 8.0 | 0.38 | 3.84 | 1.09 | 88 | 1014.8 |
| 20260903174429 | 25 | 100 | 4.8 | 8.0 | 0.69 | 3.84 | 0.99 | 88 | 1015.4 |
| 20260903172927 | 25 | 338 | 3.2 | 11.3 | 0.79 | 3.84 | 0.86 | 87 | 1015.4 |